カタログに戻る

STARLINK-33684

運用中通信VLEO
NORAD 63649·PAYLOAD·🇺🇸 United States

打ち上げ Apr 25, 2025 から Cape Canaveral Space Force Station

Loading…

次のパス (今後24時間)

TLE

最新Source: CelesTrak SupGP

元期: Sep 14, 2026, 21:02 UTC

1 63649C 25083R   26257.87687500  .00040605  00000+0  14707-2 0  2571
2 63649  43.0033  16.4477 0001839 276.5253 111.2363 15.27556538    18

AllMySatでSTARLINK-33684をリアルタイム追跡

Download on the App Store